Blaine, MN

5:51 AM CST on February 06, 2016 (GMT -0600)
Anoka County / Blaine Airport

Weather History for KANE - May, 2013

Change the Weather History Date:

Friday, May 10, 2013

  Actual Average Record
Temperature  
Mean Temperature 50 °F -  
Max Temperature 66 °F 63 °F 84 °F (2007)
Min Temperature 35 °F 43 °F 33 °F (1997)
Degree Days  
Heating Degree Days 14    
Moisture  
Dew Point 30 °F    
Average Humidity 52    
Maximum Humidity 81    
Minimum Humidity 18    
Precipitation  
Precipitation 0.00 in - - ()
Sea Level Pressure  
Sea Level Pressure 30.03 in    
Wind  
Wind Speed 8 mph (North)    
Max Wind Speed 12 mph    
Max Gust Speed -    
Visibility 10 miles    
Events Rain    
Averages and records for this station are not official NWS values.
T = Trace of Precipitation, MM = Missing Value Source: NWS Daily Summary

Daily Weather History Graph

Daily Weather History Graph

Search for Another Location

Airport or City:

Trip Planner

Search our weather history database for the weather conditions in past years. The results will help you decide how hot, cold, wet, or windy it might be!

Date:

Astronomy

May. 10, 2013 Rise Set
Actual Time 5:49 AM CDT 8:30 PM CDT
Civil Twilight 5:15 AM CDT 9:04 PM CDT
Nautical Twilight 4:32 AM CDT 9:46 PM CDT
Astronomical Twilight 3:43 AM CDT 10:36 PM CDT
Moon 6:13 AM CDT (5/10) 9:21 PM CDT (5/10)
Length of Visible Light 15h 48m
Length of Day
14h 41m
New Moon, 0% of the Moon is Illuminated
May 10
New Moon
May 17
First Quarter
May 24
Full
May 31
Last Quarter
Jun 8
New

Hourly Weather History & Observations

Time (CDT) Temp. Windchill Dew Point Humidity Pressure Visibility Wind Dir Wind Speed Gust Speed Precip Events Conditions
12:54 AM 42.8 °F 37.5 °F 30.2 °F 61% 30.12 in 10.0 mi North 9.2 mph - N/A   Mostly Cloudy
1:14 AM 42.8 °F 37.5 °F 30.2 °F 61% 30.12 in 10.0 mi NNE 9.2 mph - N/A   Overcast
1:34 AM 42.8 °F 36.6 °F 30.2 °F 61% 30.12 in 10.0 mi North 11.5 mph - N/A   Overcast
1:54 AM 42.8 °F 37.5 °F 30.2 °F 61% 30.12 in 10.0 mi NNE 9.2 mph - N/A   Overcast
2:14 AM 42.8 °F 37.0 °F 30.2 °F 61% 30.12 in 10.0 mi North 10.4 mph - N/A   Overcast
2:34 AM 41.0 °F 35.8 °F 30.2 °F 65% 30.11 in 10.0 mi North 8.1 mph - N/A   Scattered Clouds
2:54 AM 39.2 °F 32.5 °F 30.2 °F 70% 30.11 in 10.0 mi North 10.4 mph - N/A   Clear
3:14 AM 39.2 °F 33.0 °F 30.2 °F 70% 30.11 in 10.0 mi North 9.2 mph - N/A   Clear
3:54 AM 37.4 °F 30.3 °F 30.2 °F 75% 30.11 in 10.0 mi NNE 10.4 mph - N/A   Clear
4:14 AM 37.4 °F 30.8 °F 30.2 °F 75% 30.11 in 10.0 mi North 9.2 mph - N/A   Clear
4:34 AM 37.4 °F 30.8 °F 30.2 °F 75% 30.12 in 10.0 mi North 9.2 mph - N/A   Clear
4:54 AM 37.4 °F 30.8 °F 30.2 °F 75% 30.11 in 10.0 mi North 9.2 mph - N/A   Clear
5:14 AM 35.6 °F 29.2 °F 30.2 °F 81% 30.11 in 10.0 mi North 8.1 mph - N/A   Clear
5:34 AM 35.6 °F 29.2 °F 30.2 °F 81% 30.12 in 10.0 mi North 8.1 mph - N/A   Clear
5:54 AM 35.6 °F 29.9 °F 30.2 °F 81% 30.12 in 10.0 mi North 6.9 mph - N/A   Clear
6:14 AM 35.6 °F 29.9 °F 28.4 °F 75% 30.12 in 10.0 mi North 6.9 mph - N/A   Clear
6:34 AM 35.6 °F 29.9 °F 30.2 °F 81% 30.12 in 10.0 mi North 6.9 mph - N/A   Clear
7:55 AM 39.2 °F 33.0 °F 30.2 °F 70% 30.13 in 10.0 mi North 9.2 mph - N/A   Clear
8:50 AM 42.8 °F 37.5 °F 28.4 °F 57% 30.11 in 10.0 mi NNE 9.2 mph - N/A   Clear
9:45 AM 46.4 °F 43.5 °F 28.4 °F 50% 30.11 in 10.0 mi NNE 5.8 mph - N/A   Clear
10:45 AM 50.0 °F - 28.4 °F 43% 30.10 in 10.0 mi North 3.5 mph - N/A   Clear
12:45 PM 57.2 °F - 26.6 °F 31% 30.07 in 10.0 mi North 4.6 mph - N/A   Clear
1:55 PM 60.8 °F - 26.6 °F 27% 30.04 in 10.0 mi North 6.9 mph - N/A   Clear
2:45 PM 62.6 °F - 26.6 °F 26% 30.03 in 10.0 mi North 6.9 mph - N/A   Clear
3:55 PM 64.4 °F - 26.6 °F 24% 29.99 in 10.0 mi North 6.9 mph - N/A   Clear
4:45 PM 64.4 °F - 23.0 °F 21% 29.97 in 10.0 mi WSW 9.2 mph - N/A   Clear
5:45 PM 66.2 °F - 21.2 °F 18% 29.95 in 10.0 mi WSW 9.2 mph - N/A   Clear
6:45 PM 66.2 °F - 23.0 °F 19% 29.93 in 10.0 mi West 9.2 mph - N/A   Clear
7:45 PM 64.4 °F - 21.2 °F 19% 29.92 in 10.0 mi WSW 4.6 mph - N/A   Scattered Clouds
8:50 PM 60.8 °F - 30.2 °F 31% 29.90 in 10.0 mi Calm Calm - N/A   Scattered Clouds
9:14 PM 60.8 °F - 26.6 °F 27% 29.90 in 10.0 mi Calm Calm - N/A   Scattered Clouds
9:34 PM 57.2 °F - 33.8 °F 41% 29.90 in 10.0 mi South 3.5 mph - N/A   Mostly Cloudy
9:50 PM 60.8 °F - 28.4 °F 29% 29.91 in 10.0 mi WSW 3.5 mph - N/A   Overcast
9:54 PM 59.0 °F - 32.0 °F 36% 29.92 in 10.0 mi West 4.6 mph - N/A   Overcast
10:14 PM 60.8 °F - 30.2 °F 31% 29.91 in 10.0 mi SSW 4.6 mph - N/A Rain Light Rain
10:33 PM 55.4 °F - 41.0 °F 58% 29.89 in 10.0 mi South 6.9 mph - N/A   Mostly Cloudy
10:54 PM 57.2 °F - 42.8 °F 59% 29.88 in 10.0 mi South 4.6 mph - N/A   Mostly Cloudy
11:14 PM 57.2 °F - 42.8 °F 59% 29.88 in 10.0 mi South 4.6 mph - N/A   Overcast
11:33 PM 57.2 °F - 37.4 °F 48% 29.87 in 10.0 mi South 8.1 mph - N/A   Overcast
11:54 PM 57.2 °F - 37.4 °F 48% 29.87 in 10.0 mi Calm Calm - N/A Rain Light Rain